Location: Chanteloup
(48.8560°N, 2.7390°E)
Time: 17:39:01
(UTC+00:00)

Cosmos 1758 Rocket - Pass Details

Date: 01 June 2022
Orbit: 601 x 635 km, 82.5° (Epoch: 27 June)

Event Time Altitude Azimuth Distance (km) Brightness Sun altitude
Rises 02:43:46 0° 159° (SSE) 2,868 6.7 -8.9°
Reaches altitude 10° 02:46:13 10° 147° (SSE) 1,963 6.0 -8.6°
Maximum altitude 02:49:54 28° 89° (E) 1,160 5.5 -8.2°
Drops below altitude 10° 02:53:35 10° 31° (NNE) 1,963 7.7 -7.8°
Sets 02:56:01 0° 20° (NNE) 2,869 8.4 -7.5°
